Location: Winter Haven
(28.0220°N, 81.7330°W)
Time: 09:25:58
(UTC-04:00)

Amateur Radio Satellites - All Passes

Search period start: 25 October 2014 08:55
Search period end: 26 October 2014 08:55
Location: Winter Haven, 28.0220°N, 81.7330°W

Satellite Date Start Highest point End Downlink Frequencies (MHz)
Time Altitude Azimuth
SO-67 25 Oct 09:01:26 09:04:18 25° 286° (WNW) 09:07:08 435.3500 MHz FM
PANSAT 25 Oct 09:23:38 09:27:28 83° 357° (N) 09:31:18 not established
HO-68 25 Oct 09:33:49 09:40:01 31° 99° (E) 09:46:11 435.675 MHz FM
Oscar 11 25 Oct 10:18:48 10:21:59 20° 96° (E) 10:25:09 145.825 FM, Beacon 2401.500 USB
MaSat-1 25 Oct 10:41:06 10:43:24 40° 252° (WSW) 10:45:37 437.345 MHz
KITSAT 1 25 Oct 11:00:08 11:05:13 18° 103° (ESE) 11:10:19 435.175 FM
PANSAT 25 Oct 11:03:49 11:07:38 74° 191° (S) 11:11:27 not established
ZACube-1 25 Oct 11:08:54 11:12:38 31° 98° (E) 11:16:19 437.345 MHz
RS-15 25 Oct 11:11:45 11:16:47 14° 259° (W) 11:21:55 29.354 - 29.394 USB, Beacon 29.352 USB
UKube-1 25 Oct 11:12:43 11:17:05 74° 284° (WNW) 11:21:24 145.840 MHz, 145.915 MHz
HO-68 25 Oct 11:21:07 11:27:37 38° 291° (WNW) 11:34:06 435.675 MHz FM
FUNcube-1 25 Oct 11:53:09 11:57:19 65° 283° (WNW) 12:01:25 145.950 - 145.970 MHz USB
Oscar 11 25 Oct 11:54:37 11:58:02 23° 288° (WNW) 12:01:26 145.825 FM, Beacon 2401.500 USB
ISS 25 Oct 12:18:31 12:21:49 88° 313° (NW) 12:25:09 145.800 FM
Oscar 10/S400 25 Oct 12:29:19 12:57:20 45° 154° (SSE) 13:15:08 145.825 - 145.975 CW/USB, Beacon 145.810 USB
PANSAT 25 Oct 12:44:18 12:47:33 27° 202° (SSW) 12:50:49 not established
ZACube-1 25 Oct 12:46:28 12:48:42 14° 290° (WNW) 12:50:55 437.345 MHz
SO-50 25 Oct 12:50:44 12:55:07 66° 114° (ESE) 12:59:37 436.795 FM
KITSAT 1 25 Oct 12:51:48 12:59:49 69° 296° (WNW) 13:07:52 435.175 FM
PCSat 25 Oct 12:57:53 13:00:48 15° 55° (NE) 13:03:43 145.825 MHz
Oscar 16 25 Oct 13:17:06 13:20:26 18° 69° (ENE) 13:23:46 437.025 USB, Beacon 2401.1428
Uribyol 2 25 Oct 13:39:54 13:41:17 11° 66° (ENE) 13:42:40 436.500 FM
ITAMSAT 1 25 Oct 13:45:32 13:47:27 12° 66° (ENE) 13:49:21 435.822 SSB
Oscar 19 25 Oct 14:08:25 14:13:30 62° 75° (ENE) 14:18:35 437.125 CW, 437.150 USB
Gurwin Techsat 1B 25 Oct 14:10:29 14:11:00 10° 65° (ENE) 14:11:31 435.225 FM
UOSAT-12 25 Oct 14:11:22 14:15:31 36° 112° (ESE) 14:19:47 437.025 FM, 437.400 FM
Sapphire 25 Oct 14:16:39 14:22:06 76° 66° (ENE) 14:27:29 437.095 MHz 1200 baud AX-25 AFSK
JAS-1B 25 Oct 14:25:58 14:32:14 76° 76° (ENE) 14:37:55 435.800 - 435.900 CW/SSB
AO-27 25 Oct 14:28:08 14:32:52 37° 72° (ENE) 14:37:38 436.795 MHz FM
SO-50 25 Oct 14:35:47 14:36:05 10° 309° (NW) 14:36:22 436.795 FM
PCSat 25 Oct 14:39:13 14:44:32 59° 249° (WSW) 14:49:49 145.825 MHz
AO-Echo 25 Oct 14:44:18 14:49:05 71° 76° (ENE) 14:54:03 ?
KITSAT 1 25 Oct 14:54:03 14:56:37 12° 315° (NW) 14:59:11 435.175 FM
Oscar 16 25 Oct 14:54:35 14:59:25 40° 261° (W) 15:04:15 437.025 USB, Beacon 2401.1428
Uribyol 2 25 Oct 15:14:58 15:20:07 65° 258° (WSW) 15:25:19 436.500 FM
ITAMSAT 1 25 Oct 15:21:13 15:26:20 60° 259° (WSW) 15:31:30 435.822 SSB
Gurwin Techsat 1B 25 Oct 15:45:00 15:50:16 72° 258° (WSW) 15:55:35 435.225 FM
AO-40 25 Oct 15:50:06 23:33:13 56° 183° (S) 05:45:52 Beacon 2401.320
UOSAT-12 25 Oct 15:52:33 15:55:43 18° 305° (NW) 15:58:57 437.025 FM, 437.400 FM
Oscar 19 25 Oct 15:52:37 15:53:05 10° 266° (W) 15:53:33 437.125 CW, 437.150 USB
TMSAT-1 25 Oct 15:55:45 16:01:02 78° 258° (WSW) 16:06:21 436.925 FM
AO-27 25 Oct 16:08:48 16:12:23 19° 264° (W) 16:15:59 436.795 MHz FM
AO-7 25 Oct 16:14:17 16:21:53 43° 67° (ENE) 16:29:29 29.400 - 29.500 MHz
Uosat F 25 Oct 16:30:32 16:34:45 28° 71° (ENE) 16:38:58 435.120 FM
JAS-2 25 Oct 17:06:22 17:09:56 17° 64° (ENE) 17:13:43 435.800 - 435.900 CW/SSB, 435.910 FM
Saudisat 1A 25 Oct 17:21:14 17:25:32 51° 61° (ENE) 17:29:49 436.775 MHz
AO-7 25 Oct 18:07:23 18:14:35 33° 260° (W) 18:21:49 29.400 - 29.500 MHz
Uosat F 25 Oct 18:09:27 18:13:24 23° 263° (W) 18:17:23 435.120 FM
OPAL 25 Oct 18:21:08 18:25:56 50° 102° (ESE) 18:30:42 ?
Hamsat 25 Oct 18:47:37 18:51:49 70° 259° (W) 18:56:00 145.90 MHz
JAS-2 25 Oct 18:48:43 18:54:15 55° 261° (W) 19:00:31 435.800 - 435.900 CW/SSB, 435.910 FM
SO-67 25 Oct 19:26:57 19:29:56 29° 75° (ENE) 19:32:56 435.3500 MHz FM
HO-68 25 Oct 20:00:16 20:01:27 10° 59° (ENE) 20:02:38 435.675 MHz FM
OPAL 25 Oct 20:02:01 20:04:20 13° 295° (WNW) 20:06:39 ?
STRAND 1 25 Oct 20:06:47 20:11:55 70° 102° (ESE) 20:17:01 ?
ISS 25 Oct 20:29:08 20:32:21 45° 45° (NE) 20:35:33 145.800 FM
KITSAT 1 25 Oct 20:54:33 20:59:52 19° 51° (NE) 21:05:08 435.175 FM
RS-15 25 Oct 20:59:54 21:08:27 26° 104° (ESE) 21:16:49 29.354 - 29.394 USB, Beacon 29.352 USB
SO-50 25 Oct 21:31:24 21:32:54 11° 51° (NE) 21:34:24 436.795 FM
HO-68 25 Oct 21:40:53 21:48:01 81° 74° (ENE) 21:55:12 435.675 MHz FM
ZACube-1 25 Oct 22:00:15 22:02:15 13° 69° (ENE) 22:04:14 437.345 MHz
UKube-1 25 Oct 22:01:23 22:05:23 37° 74° (ENE) 22:09:24 145.840 MHz, 145.915 MHz
Oscar 11 25 Oct 22:41:41 22:46:00 73° 259° (WSW) 22:50:19 145.825 FM, Beacon 2401.500 USB
FUNcube-1 25 Oct 22:42:10 22:46:29 41° 75° (ENE) 22:50:45 145.950 - 145.970 MHz USB
KITSAT 1 25 Oct 22:47:55 22:56:00 80° 247° (WSW) 23:04:02 435.175 FM
RS-15 25 Oct 23:08:57 23:19:54 64° 299° (WNW) 23:30:43 29.354 - 29.394 USB, Beacon 29.352 USB
SO-50 25 Oct 23:09:01 23:13:52 70° 245° (WSW) 23:18:43 436.795 FM
HO-68 25 Oct 23:33:24 23:36:11 13° 266° (W) 23:39:00 435.675 MHz FM
ZACube-1 25 Oct 23:33:49 23:38:13 44° 261° (W) 23:42:34 437.345 MHz
UKube-1 25 Oct 23:39:44 23:41:37 13° 265° (W) 23:43:31 145.840 MHz, 145.915 MHz
MaSat-1 26 Oct 00:09:58 00:14:05 46° 292° (WNW) 00:17:53 437.345 MHz
FUNcube-1 26 Oct 00:20:49 00:22:54 13° 265° (W) 00:24:59 145.950 - 145.970 MHz USB
UOSAT-12 26 Oct 00:27:05 00:31:44 62° 62° (ENE) 00:36:16 437.025 FM, 437.400 FM
RS-15 26 Oct 01:29:55 01:34:46 14° 323° (NW) 01:39:38 29.354 - 29.394 USB, Beacon 29.352 USB
Oscar 10/S400 26 Oct 01:38:46 02:54:19 28° 247° (WSW) 06:17:50 145.825 - 145.975 CW/USB, Beacon 145.810 USB
JAS-1B 26 Oct 02:15:37 02:22:11 35° 101° (E) 02:29:47 435.800 - 435.900 CW/SSB
Oscar 19 26 Oct 02:27:19 02:32:05 39° 99° (E) 02:36:50 437.125 CW, 437.150 USB
AO-27 26 Oct 02:48:40 02:52:50 24° 97° (E) 02:56:58 436.795 MHz FM
AO-Echo 26 Oct 02:58:32 03:03:35 43° 99° (E) 03:08:33 ?
Sapphire 26 Oct 03:09:10 03:13:37 27° 107° (ESE) 03:18:05 437.095 MHz 1200 baud AX-25 AFSK
Oscar 16 26 Oct 03:13:04 03:18:07 63° 285° (WNW) 03:23:09 437.025 USB, Beacon 2401.1428
PCSat 26 Oct 03:30:42 03:35:53 50° 110° (ESE) 03:41:06 145.825 MHz
Uribyol 2 26 Oct 03:34:48 03:40:01 82° 103° (ESE) 03:45:11 436.500 FM
ITAMSAT 1 26 Oct 03:41:09 03:46:23 89° 103° (ESE) 03:51:35 435.822 SSB
JAS-1B 26 Oct 04:06:09 04:12:33 38° 288° (WNW) 04:20:03 435.800 - 435.900 CW/SSB
Oscar 19 26 Oct 04:07:46 04:11:03 18° 291° (WNW) 04:14:21 437.125 CW, 437.150 USB
Gurwin Techsat 1B 26 Oct 04:08:20 04:13:40 84° 103° (ESE) 04:18:58 435.225 FM
TMSAT-1 26 Oct 04:18:44 04:24:03 77° 102° (ESE) 04:29:20 436.925 FM
AO-7 26 Oct 04:24:52 04:30:42 21° 97° (E) 04:36:29 29.400 - 29.500 MHz
AO-27 26 Oct 04:27:46 04:32:13 29° 289° (WNW) 04:36:39 436.795 MHz FM
AO-Echo 26 Oct 04:38:29 04:41:55 18° 292° (WNW) 04:45:19 ?
Uosat F 26 Oct 04:46:13 04:49:07 15° 95° (E) 04:52:00 435.120 FM
Sapphire 26 Oct 04:52:13 04:56:51 29° 300° (WNW) 05:01:32 437.095 MHz 1200 baud AX-25 AFSK
PCSat 26 Oct 05:16:07 05:19:30 17° 304° (NW) 05:22:55 145.825 MHz
OPAL 26 Oct 05:29:16 05:34:06 42° 71° (ENE) 05:38:53 ?
PANSAT 26 Oct 05:39:08 05:41:59 20° 156° (SSE) 05:44:51 not established
JAS-2 26 Oct 06:04:57 06:11:59 35° 97° (E) 06:18:46 435.800 - 435.900 CW/SSB, 435.910 FM
RS-15 26 Oct 06:08:43 06:15:32 17° 42° (NE) 06:22:28 29.354 - 29.394 USB, Beacon 29.352 USB
AO-7 26 Oct 06:15:34 06:23:46 65° 290° (WNW) 06:31:58 29.400 - 29.500 MHz
Uosat F 26 Oct 06:23:15 06:27:59 42° 287° (WNW) 06:32:41 435.120 FM
Hamsat 26 Oct 06:40:18 06:44:08 33° 98° (E) 06:47:58 145.90 MHz
OPAL 26 Oct 07:09:49 07:13:01 17° 262° (W) 07:16:12 ?
STRAND 1 26 Oct 07:15:50 07:20:44 48° 74° (ENE) 07:25:40 ?
PANSAT 26 Oct 07:18:04 07:21:51 61° 166° (SSE) 07:25:38 not established
Saudisat 1A 26 Oct 07:20:45 07:25:05 72° 115° (ESE) 07:29:27 436.775 MHz
JAS-2 26 Oct 07:49:41 07:56:48 39° 290° (WNW) 08:03:45 435.800 - 435.900 CW/SSB, 435.910 FM
Hamsat 26 Oct 08:17:38 08:19:44 14° 290° (WNW) 08:21:50 145.90 MHz
RS-15 26 Oct 08:18:32 08:29:52 76° 63° (ENE) 08:41:42 29.354 - 29.394 USB, Beacon 29.352 USB
SO-67 26 Oct 08:29:08 08:32:35 82° 282° (WNW) 08:36:00 435.3500 MHz FM
